Year,Month,Day,Hour,Minute,Value (Times are PST for temperature in C)
2017,01,20,00,00,5.30
2017,01,20,00,01,5.20
2017,01,20,00,02,5.20
2017,01,20,00,03,5.20
2017,01,20,00,04,5.20
2017,01,20,00,05,5.20
2017,01,20,00,06,5.10
2017,01,20,00,07,5.10
2017,01,20,00,08,5.10
2017,01,20,00,09,5.10
2017,01,20,00,10,5.00
2017,01,20,00,11,5.00
2017,01,20,00,12,5.00
2017,01,20,00,13,4.90
2017,01,20,00,14,4.90
2017,01,20,00,15,4.90
2017,01,20,00,16,4.90
2017,01,20,00,17,4.90
2017,01,20,00,18,4.80
2017,01,20,00,19,4.80
2017,01,20,00,20,4.70
2017,01,20,00,21,4.60
2017,01,20,00,22,4.50
2017,01,20,00,23,4.40
2017,01,20,00,24,4.40
2017,01,20,00,25,4.40
2017,01,20,00,26,4.40
2017,01,20,00,27,4.40
2017,01,20,00,28,4.40
2017,01,20,00,29,4.40
2017,01,20,00,30,4.40
2017,01,20,00,31,4.40
2017,01,20,00,32,4.40
2017,01,20,00,33,4.40
2017,01,20,00,34,4.40
2017,01,20,00,35,4.40
2017,01,20,00,36,4.30
2017,01,20,00,37,4.30
2017,01,20,00,38,4.30
2017,01,20,00,39,4.30
2017,01,20,00,40,4.30
2017,01,20,00,41,4.30
2017,01,20,00,42,4.20
2017,01,20,00,43,4.20
2017,01,20,00,44,4.20
2017,01,20,00,45,4.20
2017,01,20,00,46,4.10
2017,01,20,00,47,4.10
2017,01,20,00,48,4.10
2017,01,20,00,49,4.10
2017,01,20,00,50,4.10
2017,01,20,00,51,4.00
2017,01,20,00,52,4.00
2017,01,20,00,53,4.00
2017,01,20,00,54,3.90
2017,01,20,00,55,3.80
2017,01,20,00,56,3.70
2017,01,20,00,57,3.60
2017,01,20,00,58,3.50
2017,01,20,00,59,3.40
2017,01,20,01,00,3.40
2017,01,20,01,01,3.30
2017,01,20,01,02,3.30
2017,01,20,01,03,3.30
2017,01,20,01,04,3.30
2017,01,20,01,05,3.30
2017,01,20,01,06,3.30
2017,01,20,01,07,3.30
2017,01,20,01,08,3.20
2017,01,20,01,09,3.30
2017,01,20,01,10,3.20
2017,01,20,01,11,3.30
2017,01,20,01,12,3.30
2017,01,20,01,13,3.30
2017,01,20,01,14,3.30
2017,01,20,01,15,3.40
2017,01,20,01,16,3.40
2017,01,20,01,17,3.40
2017,01,20,01,18,3.30
2017,01,20,01,19,3.30
2017,01,20,01,20,3.30
2017,01,20,01,21,3.20
2017,01,20,01,22,3.10
2017,01,20,01,23,3.10
2017,01,20,01,24,3.00
2017,01,20,01,25,3.00
2017,01,20,01,26,3.00
2017,01,20,01,27,3.00
2017,01,20,01,28,2.90
2017,01,20,01,29,2.90
2017,01,20,01,30,2.80
2017,01,20,01,31,2.80
2017,01,20,01,32,2.80
2017,01,20,01,33,2.90
2017,01,20,01,34,2.90
2017,01,20,01,35,2.90
2017,01,20,01,36,2.90
2017,01,20,01,37,2.80
2017,01,20,01,38,2.70
2017,01,20,01,39,2.70
2017,01,20,01,40,2.60
2017,01,20,01,41,2.60
2017,01,20,01,42,2.60
2017,01,20,01,43,2.50
2017,01,20,01,44,2.60
2017,01,20,01,45,2.60
2017,01,20,01,46,2.70
2017,01,20,01,47,2.70
2017,01,20,01,48,2.80
2017,01,20,01,49,2.80
2017,01,20,01,50,2.80
2017,01,20,01,51,2.80
2017,01,20,01,52,2.90
2017,01,20,01,53,2.90
2017,01,20,01,54,2.90
2017,01,20,01,55,2.90
2017,01,20,01,56,2.90
2017,01,20,01,57,2.90
2017,01,20,01,58,2.90
2017,01,20,01,59,2.90
2017,01,20,02,00,2.90
2017,01,20,02,01,2.90
2017,01,20,02,02,2.90
2017,01,20,02,03,2.90
2017,01,20,02,04,2.90
2017,01,20,02,05,2.80
2017,01,20,02,06,2.70
2017,01,20,02,07,2.70
2017,01,20,02,08,2.70
2017,01,20,02,09,2.70
2017,01,20,02,10,2.70
2017,01,20,02,11,2.80
2017,01,20,02,12,2.90
2017,01,20,02,13,3.00
2017,01,20,02,14,3.10
2017,01,20,02,15,3.30
2017,01,20,02,16,3.30
2017,01,20,02,17,3.40
2017,01,20,02,18,3.50
2017,01,20,02,19,3.60
2017,01,20,02,20,3.60
2017,01,20,02,21,3.60
2017,01,20,02,22,3.50
2017,01,20,02,23,3.50
2017,01,20,02,24,3.50
2017,01,20,02,25,3.40
2017,01,20,02,26,3.30
2017,01,20,02,27,3.20
2017,01,20,02,28,3.30
2017,01,20,02,29,3.30
2017,01,20,02,30,3.30
2017,01,20,02,31,3.50
2017,01,20,02,32,3.60
2017,01,20,02,33,3.60
2017,01,20,02,34,3.70
2017,01,20,02,35,3.70
2017,01,20,02,36,3.70
2017,01,20,02,37,3.80
2017,01,20,02,38,3.80
2017,01,20,02,39,3.80
2017,01,20,02,40,3.80
2017,01,20,02,41,3.80
2017,01,20,02,42,3.90
2017,01,20,02,43,4.00
2017,01,20,02,44,4.10
2017,01,20,02,45,4.10
2017,01,20,02,46,4.10
2017,01,20,02,47,4.10
2017,01,20,02,48,4.10
2017,01,20,02,49,4.20
2017,01,20,02,50,4.10
2017,01,20,02,51,4.10
2017,01,20,02,52,4.10
2017,01,20,02,53,4.20
2017,01,20,02,54,4.20
2017,01,20,02,55,4.10
2017,01,20,02,56,4.10
2017,01,20,02,57,4.10
2017,01,20,02,58,4.10
2017,01,20,02,59,4.10
2017,01,20,03,00,3.90
2017,01,20,03,01,3.80
2017,01,20,03,02,3.70
2017,01,20,03,03,3.60
2017,01,20,03,04,3.60
2017,01,20,03,05,3.50
2017,01,20,03,06,3.50
2017,01,20,03,07,3.50
2017,01,20,03,08,3.50
2017,01,20,03,09,3.50
2017,01,20,03,10,3.50
2017,01,20,03,11,3.50
2017,01,20,03,12,3.50
2017,01,20,03,13,3.50
2017,01,20,03,14,3.60
2017,01,20,03,15,3.60
2017,01,20,03,16,3.60
2017,01,20,03,17,3.60
2017,01,20,03,18,3.60
2017,01,20,03,19,3.60
2017,01,20,03,20,3.60
2017,01,20,03,21,3.60
2017,01,20,03,22,3.60
2017,01,20,03,23,3.60
2017,01,20,03,24,3.50
2017,01,20,03,25,3.50
2017,01,20,03,26,3.50
2017,01,20,03,27,3.50
2017,01,20,03,28,3.50
2017,01,20,03,29,3.50
2017,01,20,03,30,3.50
2017,01,20,03,31,3.50
2017,01,20,03,32,3.50
2017,01,20,03,33,3.50
2017,01,20,03,34,3.40
2017,01,20,03,35,3.40
2017,01,20,03,36,3.40
2017,01,20,03,37,3.40
2017,01,20,03,38,3.50
2017,01,20,03,39,3.50
2017,01,20,03,40,3.50
2017,01,20,03,41,3.60
2017,01,20,03,42,3.60
2017,01,20,03,43,3.60
2017,01,20,03,44,3.60
2017,01,20,03,45,3.70
2017,01,20,03,46,3.70
2017,01,20,03,47,3.70
2017,01,20,03,48,3.80
2017,01,20,03,49,3.80
2017,01,20,03,50,3.80
2017,01,20,03,51,3.80
2017,01,20,03,52,3.80
2017,01,20,03,53,3.80
2017,01,20,03,54,3.90
2017,01,20,03,55,3.90
2017,01,20,03,56,3.90
2017,01,20,03,57,3.90
2017,01,20,03,58,3.90
2017,01,20,03,59,3.80
2017,01,20,04,00,3.80
2017,01,20,04,01,3.80
2017,01,20,04,02,3.70
2017,01,20,04,03,3.70
2017,01,20,04,04,3.70
2017,01,20,04,05,3.70
2017,01,20,04,06,3.70
2017,01,20,04,07,3.70
2017,01,20,04,08,3.60
2017,01,20,04,09,3.60
2017,01,20,04,10,3.60
2017,01,20,04,11,3.50
2017,01,20,04,12,3.50
2017,01,20,04,13,3.40
2017,01,20,04,14,3.40
2017,01,20,04,15,3.40
2017,01,20,04,16,3.40
2017,01,20,04,17,3.30
2017,01,20,04,18,3.30
2017,01,20,04,19,3.30
2017,01,20,04,20,3.20
2017,01,20,04,21,3.20
2017,01,20,04,22,3.30
2017,01,20,04,23,3.30
2017,01,20,04,24,3.30
2017,01,20,04,25,3.30
2017,01,20,04,26,3.30
2017,01,20,04,27,3.30
2017,01,20,04,28,3.30
2017,01,20,04,29,3.30
2017,01,20,04,30,3.30
2017,01,20,04,31,3.20
2017,01,20,04,32,3.20
2017,01,20,04,33,3.20
2017,01,20,04,34,3.20
2017,01,20,04,35,3.20
2017,01,20,04,36,3.20
2017,01,20,04,37,3.20
2017,01,20,04,38,3.20
2017,01,20,04,39,3.20
2017,01,20,04,40,3.20
2017,01,20,04,41,3.20
2017,01,20,04,42,3.20
2017,01,20,04,43,3.10
2017,01,20,04,44,3.10
2017,01,20,04,45,3.10
2017,01,20,04,46,3.10
2017,01,20,04,47,3.10
2017,01,20,04,48,3.10
2017,01,20,04,49,3.10
2017,01,20,04,50,3.10
2017,01,20,04,51,3.10
2017,01,20,04,52,3.10
2017,01,20,04,53,3.10
2017,01,20,04,54,3.00
2017,01,20,04,55,3.00
2017,01,20,04,56,3.00
2017,01,20,04,57,3.10
2017,01,20,04,58,3.20
2017,01,20,04,59,3.20
2017,01,20,05,00,3.30
2017,01,20,05,01,3.20
2017,01,20,05,02,3.10
2017,01,20,05,03,3.00
2017,01,20,05,04,2.90
2017,01,20,05,05,2.80
2017,01,20,05,06,2.80
2017,01,20,05,07,2.80
2017,01,20,05,08,2.90
2017,01,20,05,09,3.00
2017,01,20,05,10,3.10
2017,01,20,05,11,3.20
2017,01,20,05,12,3.30
2017,01,20,05,13,3.30
2017,01,20,05,14,3.30
2017,01,20,05,15,3.30
2017,01,20,05,16,3.30
2017,01,20,05,17,3.20
2017,01,20,05,18,3.20
2017,01,20,05,19,3.20
2017,01,20,05,20,3.20
2017,01,20,05,21,3.10
2017,01,20,05,22,3.10
2017,01,20,05,23,3.10
2017,01,20,05,24,3.10
2017,01,20,05,25,3.10
2017,01,20,05,26,3.10
2017,01,20,05,27,3.00
2017,01,20,05,28,3.00
2017,01,20,05,29,3.00
2017,01,20,05,30,3.00
2017,01,20,05,31,3.00
2017,01,20,05,32,3.00
2017,01,20,05,33,3.00
2017,01,20,05,34,3.00
2017,01,20,05,35,3.00
2017,01,20,05,36,3.00
2017,01,20,05,37,3.00
2017,01,20,08,27,3.60
2017,01,20,08,28,3.60
2017,01,20,08,29,3.60
2017,01,20,08,30,3.60
2017,01,20,08,31,3.60
2017,01,20,08,32,3.60
2017,01,20,08,33,3.60
2017,01,20,08,34,3.60
2017,01,20,08,35,3.60
2017,01,20,08,36,3.60
2017,01,20,08,37,3.60
2017,01,20,08,38,3.60
2017,01,20,08,39,3.60
2017,01,20,08,40,3.60
2017,01,20,08,41,3.60
2017,01,20,08,42,3.70
2017,01,20,08,43,3.70
2017,01,20,08,44,3.70
2017,01,20,08,45,3.70
2017,01,20,08,46,3.70
2017,01,20,08,47,3.70
2017,01,20,08,48,3.80
2017,01,20,08,49,3.80
2017,01,20,08,50,3.90
2017,01,20,08,51,3.90
2017,01,20,08,52,3.90
2017,01,20,08,53,4.00
2017,01,20,08,54,4.00
2017,01,20,08,55,4.10
2017,01,20,08,56,4.10
2017,01,20,08,57,4.10
2017,01,20,08,58,4.20
2017,01,20,08,59,4.20
2017,01,20,09,00,4.30
2017,01,20,09,01,4.30
2017,01,20,09,02,4.40
2017,01,20,09,03,4.50
2017,01,20,09,04,4.50
2017,01,20,09,05,4.60
2017,01,20,09,06,4.70
2017,01,20,09,07,4.70
2017,01,20,09,08,4.80
2017,01,20,09,09,4.80
2017,01,20,09,10,4.90
2017,01,20,09,11,5.00
2017,01,20,09,12,5.00
2017,01,20,09,13,5.10
2017,01,20,09,14,5.10
2017,01,20,09,15,5.10
2017,01,20,09,16,5.20
2017,01,20,09,17,5.30
2017,01,20,09,18,5.30
2017,01,20,09,19,5.40
2017,01,20,09,20,5.50
2017,01,20,09,21,5.50
2017,01,20,09,22,5.60
2017,01,20,09,23,5.60
2017,01,20,09,24,5.60
2017,01,20,09,25,5.60
2017,01,20,09,26,5.70
2017,01,20,09,27,5.80
2017,01,20,09,28,5.90
2017,01,20,09,29,5.90
2017,01,20,09,30,6.00
2017,01,20,09,31,6.10
2017,01,20,09,32,6.20
2017,01,20,09,33,6.10
2017,01,20,09,34,6.10
2017,01,20,09,35,6.10
2017,01,20,09,36,6.10
2017,01,20,09,37,6.10
2017,01,20,09,38,6.10
2017,01,20,09,39,6.10
2017,01,20,09,40,6.00
2017,01,20,09,41,6.00
2017,01,20,09,42,6.10
2017,01,20,09,43,6.10
2017,01,20,09,44,6.10
2017,01,20,09,45,6.10
2017,01,20,09,46,6.10
2017,01,20,09,47,6.10
2017,01,20,09,48,6.10
2017,01,20,09,49,6.10
2017,01,20,09,50,6.10
2017,01,20,09,51,6.10
2017,01,20,09,52,6.10
2017,01,20,09,53,6.10
2017,01,20,09,54,6.10
2017,01,20,09,55,6.00
2017,01,20,09,56,6.00
2017,01,20,09,57,5.90
2017,01,20,09,58,5.90
2017,01,20,09,59,6.00
2017,01,20,10,00,6.00
2017,01,20,10,01,6.10
2017,01,20,10,02,6.10
2017,01,20,10,03,6.10
2017,01,20,10,04,6.20
2017,01,20,10,05,6.20
2017,01,20,10,06,6.20
2017,01,20,10,07,6.20
2017,01,20,10,08,6.10
2017,01,20,10,09,6.10
2017,01,20,10,10,6.10
2017,01,20,10,11,6.10
2017,01,20,10,12,6.10
2017,01,20,10,13,6.20
2017,01,20,10,14,6.20
2017,01,20,10,15,6.10
2017,01,20,10,16,6.10
2017,01,20,10,17,6.10
2017,01,20,10,18,6.10
2017,01,20,10,19,6.20
2017,01,20,10,20,6.20
2017,01,20,10,21,6.20
2017,01,20,10,22,6.20
2017,01,20,10,23,6.20
2017,01,20,10,24,6.10
2017,01,20,10,25,6.00
2017,01,20,10,26,5.90
2017,01,20,10,27,5.90
2017,01,20,10,28,5.90
2017,01,20,10,29,5.90
2017,01,20,10,30,5.80
2017,01,20,10,31,5.80
2017,01,20,10,32,5.90
2017,01,20,10,33,5.90
2017,01,20,10,34,5.90
2017,01,20,10,35,5.90
2017,01,20,10,36,5.90
2017,01,20,10,37,5.90
2017,01,20,10,38,5.90
2017,01,20,10,39,6.00
2017,01,20,10,40,6.00
2017,01,20,10,41,6.10
2017,01,20,10,42,6.10
2017,01,20,10,43,6.10
2017,01,20,10,44,6.20
2017,01,20,10,45,6.20
2017,01,20,10,46,6.20
2017,01,20,10,47,6.20
2017,01,20,10,48,6.20
2017,01,20,10,49,6.20
2017,01,20,10,50,6.20
2017,01,20,10,51,6.30
2017,01,20,10,52,6.30
2017,01,20,10,53,6.30
2017,01,20,10,54,6.30
2017,01,20,10,55,6.30
2017,01,20,10,56,6.40
2017,01,20,10,57,6.40
2017,01,20,10,58,6.40
2017,01,20,10,59,6.40
2017,01,20,11,00,6.40
2017,01,20,11,01,6.50
2017,01,20,11,02,6.60
2017,01,20,11,03,6.60
2017,01,20,11,04,6.70
2017,01,20,11,05,6.70
2017,01,20,11,06,6.70
2017,01,20,11,07,6.70
2017,01,20,11,08,6.70
2017,01,20,11,09,6.70
2017,01,20,11,10,6.80
2017,01,20,11,11,6.80
2017,01,20,11,12,6.80
2017,01,20,11,13,6.90
2017,01,20,11,14,6.90
2017,01,20,11,15,6.90
2017,01,20,11,16,7.00
2017,01,20,11,17,7.00
2017,01,20,11,18,7.10
2017,01,20,11,19,7.10
2017,01,20,11,20,7.10
2017,01,20,11,21,7.10
2017,01,20,11,22,7.10
2017,01,20,11,23,7.20
2017,01,20,11,24,7.20
2017,01,20,11,25,7.20
2017,01,20,11,26,7.30
2017,01,20,11,27,7.30
2017,01,20,11,28,7.40
2017,01,20,11,29,7.40
2017,01,20,11,30,7.40
2017,01,20,11,31,7.40
2017,01,20,11,32,7.50
2017,01,20,11,33,7.50
2017,01,20,11,34,7.50
2017,01,20,11,35,7.50
2017,01,20,11,36,7.50
2017,01,20,11,37,7.50
2017,01,20,11,38,7.50
2017,01,20,11,39,7.50
2017,01,20,11,40,7.40
2017,01,20,11,41,7.40
2017,01,20,11,42,7.40
2017,01,20,11,43,7.40
2017,01,20,11,44,7.40
2017,01,20,11,45,7.40
2017,01,20,11,46,7.40
2017,01,20,11,47,7.40
2017,01,20,11,48,7.40
2017,01,20,11,49,7.40
2017,01,20,11,50,7.40
2017,01,20,11,51,7.40
2017,01,20,11,52,7.30
2017,01,20,11,53,7.30
2017,01,20,11,54,7.30
2017,01,20,11,55,7.30
2017,01,20,11,56,7.30
2017,01,20,11,57,7.30
2017,01,20,11,58,7.30
2017,01,20,11,59,7.30
2017,01,20,12,00,7.30
2017,01,20,12,01,7.30
2017,01,20,12,02,7.30
2017,01,20,12,03,7.30
2017,01,20,12,04,7.30
2017,01,20,12,05,7.30
2017,01,20,12,06,7.30
2017,01,20,12,07,7.30
2017,01,20,12,08,7.30
2017,01,20,12,09,7.30
2017,01,20,12,10,7.30
2017,01,20,12,11,7.30
2017,01,20,12,12,7.30
2017,01,20,12,13,7.30
2017,01,20,12,14,7.30
2017,01,20,12,15,7.30
2017,01,20,12,16,7.40
2017,01,20,12,17,7.40
2017,01,20,12,18,7.40
2017,01,20,12,19,7.40
2017,01,20,12,20,7.40
2017,01,20,12,21,7.40
2017,01,20,12,22,7.40
2017,01,20,12,23,7.50
2017,01,20,12,24,7.50
2017,01,20,12,25,7.50
2017,01,20,12,26,7.50
2017,01,20,12,27,7.50
2017,01,20,12,28,7.50
2017,01,20,12,29,7.50
2017,01,20,12,30,7.50
2017,01,20,12,31,7.50
2017,01,20,12,32,7.50
2017,01,20,12,33,7.50
2017,01,20,12,34,7.50
2017,01,20,12,35,7.50
2017,01,20,12,36,7.60
2017,01,20,12,37,7.60
2017,01,20,12,38,7.60
2017,01,20,12,39,7.60
2017,01,20,12,40,7.60
2017,01,20,12,41,7.70
2017,01,20,12,42,7.70
2017,01,20,12,43,7.70
2017,01,20,12,44,7.70
2017,01,20,12,45,7.70
2017,01,20,12,46,7.70
2017,01,20,12,47,7.70
2017,01,20,12,48,7.70
2017,01,20,12,49,7.70
2017,01,20,12,50,7.70
2017,01,20,12,51,7.70
2017,01,20,12,52,7.70
2017,01,20,12,53,7.70
2017,01,20,12,54,7.70
2017,01,20,12,55,7.70
2017,01,20,12,56,7.70
2017,01,20,12,57,7.70
2017,01,20,12,58,7.70
2017,01,20,12,59,7.70
2017,01,20,13,00,7.70
2017,01,20,13,01,7.70
2017,01,20,13,02,7.70
2017,01,20,13,03,7.70
2017,01,20,13,04,7.70
2017,01,20,13,05,7.70
2017,01,20,13,06,7.70
2017,01,20,13,07,7.70
2017,01,20,13,08,7.80
2017,01,20,13,09,7.80
2017,01,20,13,10,7.80
2017,01,20,13,11,7.80
2017,01,20,13,12,7.80
2017,01,20,13,13,7.80
2017,01,20,13,14,7.80
2017,01,20,13,15,7.80
2017,01,20,13,16,7.80
2017,01,20,13,17,7.80
2017,01,20,13,18,7.80
2017,01,20,13,19,7.80
2017,01,20,13,20,7.80
2017,01,20,13,21,7.80
2017,01,20,13,22,7.80
2017,01,20,13,23,7.80
2017,01,20,13,24,7.80
2017,01,20,13,25,7.80
2017,01,20,13,26,7.80
2017,01,20,13,27,7.80
2017,01,20,13,28,7.80
2017,01,20,13,29,7.80
2017,01,20,13,30,7.80
2017,01,20,13,31,7.70
2017,01,20,13,32,7.70
2017,01,20,13,33,7.70
2017,01,20,13,34,7.80
2017,01,20,13,35,7.80
2017,01,20,13,36,7.80
2017,01,20,13,37,7.80
2017,01,20,13,38,7.80
2017,01,20,13,39,7.80
2017,01,20,13,40,7.80
2017,01,20,13,41,7.80
2017,01,20,13,42,7.80
2017,01,20,13,43,7.70
2017,01,20,13,44,7.70
2017,01,20,13,45,7.70
2017,01,20,13,46,7.70
2017,01,20,13,47,7.70
2017,01,20,13,48,7.70
2017,01,20,13,49,7.60
2017,01,20,13,50,7.60
2017,01,20,13,51,7.60
2017,01,20,13,52,7.60
2017,01,20,13,53,7.60
2017,01,20,13,54,7.60
2017,01,20,13,55,7.60
2017,01,20,13,56,7.60
2017,01,20,13,57,7.60
2017,01,20,13,58,7.60
2017,01,20,13,59,7.50
2017,01,20,14,00,7.50
2017,01,20,14,01,7.50
2017,01,20,14,02,7.50
2017,01,20,14,03,7.40
2017,01,20,14,04,7.40
2017,01,20,14,05,7.40
2017,01,20,14,06,7.40
2017,01,20,14,07,7.40
2017,01,20,14,08,7.40
2017,01,20,14,09,7.40
2017,01,20,14,10,7.40
2017,01,20,14,11,7.40
2017,01,20,14,12,7.40
2017,01,20,14,13,7.40
2017,01,20,14,14,7.40
2017,01,20,14,15,7.30
2017,01,20,14,16,7.30
2017,01,20,14,17,7.30
2017,01,20,14,18,7.30
2017,01,20,14,19,7.30
2017,01,20,14,20,7.30
2017,01,20,14,21,7.30
2017,01,20,14,22,7.30
2017,01,20,14,23,7.30
2017,01,20,14,24,7.30
2017,01,20,14,25,7.30
2017,01,20,14,26,7.30
2017,01,20,14,27,7.30
2017,01,20,14,28,7.30
2017,01,20,14,29,7.30
2017,01,20,14,30,7.30
2017,01,20,14,31,7.30
2017,01,20,14,32,7.30
2017,01,20,14,33,7.30
2017,01,20,14,34,7.30
2017,01,20,14,35,7.30
2017,01,20,14,36,7.30
2017,01,20,14,37,7.30
2017,01,20,14,38,7.30
2017,01,20,14,39,7.40
2017,01,20,14,40,7.40
2017,01,20,14,41,7.40
2017,01,20,14,42,7.40
2017,01,20,14,43,7.30
2017,01,20,14,44,7.40
2017,01,20,14,45,7.40
2017,01,20,14,46,7.40
2017,01,20,14,47,7.40
2017,01,20,14,48,7.40
2017,01,20,14,49,7.40
2017,01,20,14,50,7.40
2017,01,20,14,51,7.40
2017,01,20,14,52,7.40
2017,01,20,14,53,7.40
2017,01,20,14,54,7.40
2017,01,20,14,55,7.40
2017,01,20,14,56,7.40
2017,01,20,14,57,7.40
2017,01,20,14,58,7.40
2017,01,20,14,59,7.40
2017,01,20,15,00,7.40
2017,01,20,15,01,7.40
2017,01,20,15,02,7.40
2017,01,20,15,03,7.40
2017,01,20,15,04,7.40
2017,01,20,15,05,7.40
2017,01,20,15,06,7.40
2017,01,20,15,07,7.40
2017,01,20,15,08,7.40
2017,01,20,15,09,7.30
2017,01,20,15,10,7.30
2017,01,20,15,11,7.30
2017,01,20,15,12,7.30
2017,01,20,15,13,7.30
2017,01,20,15,14,7.30
2017,01,20,15,15,7.30
2017,01,20,15,16,7.30
2017,01,20,15,17,7.30
2017,01,20,15,18,7.30
2017,01,20,15,19,7.30
2017,01,20,15,20,7.30
2017,01,20,15,21,7.30
2017,01,20,15,22,7.30
2017,01,20,15,23,7.30
2017,01,20,15,24,7.30
2017,01,20,15,25,7.30
2017,01,20,15,26,7.30
2017,01,20,15,27,7.30
2017,01,20,15,28,7.30
2017,01,20,15,29,7.20
2017,01,20,15,30,7.20
2017,01,20,15,31,7.20
2017,01,20,15,32,7.20
2017,01,20,15,33,7.20
2017,01,20,15,34,7.20
2017,01,20,15,35,7.20
2017,01,20,15,36,7.20
2017,01,20,15,37,7.20
2017,01,20,15,38,7.20
2017,01,20,15,39,7.20
2017,01,20,15,40,7.20
2017,01,20,15,41,7.20
2017,01,20,15,42,7.20
2017,01,20,15,43,7.20
2017,01,20,15,44,7.20
2017,01,20,15,45,7.20
2017,01,20,15,46,7.10
2017,01,20,15,47,7.10
2017,01,20,15,48,7.10
2017,01,20,15,49,7.10
2017,01,20,15,50,7.10
2017,01,20,15,51,7.10
2017,01,20,15,52,7.10
2017,01,20,15,53,7.00
2017,01,20,15,54,7.00
2017,01,20,15,55,7.00
2017,01,20,15,56,7.00
2017,01,20,15,57,7.00
2017,01,20,15,58,6.90
2017,01,20,15,59,6.90
2017,01,20,16,00,6.90
2017,01,20,16,01,6.90
2017,01,20,16,02,6.90
2017,01,20,16,03,6.90
2017,01,20,16,04,6.90
2017,01,20,16,05,6.90
2017,01,20,16,06,6.90
2017,01,20,16,07,6.90
2017,01,20,16,08,6.90
2017,01,20,16,09,6.90
2017,01,20,16,10,6.90
2017,01,20,16,11,6.90
2017,01,20,16,12,6.90
2017,01,20,16,13,6.90
2017,01,20,16,14,6.80
2017,01,20,16,15,6.80
2017,01,20,16,16,6.80
2017,01,20,16,17,6.80
2017,01,20,16,18,6.80
2017,01,20,16,19,6.80
2017,01,20,16,20,6.80
2017,01,20,16,21,6.80
2017,01,20,16,22,6.80
2017,01,20,16,23,6.80
2017,01,20,16,24,6.80
2017,01,20,16,25,6.80
2017,01,20,16,26,6.80
2017,01,20,16,27,6.80
2017,01,20,16,28,6.80
2017,01,20,16,29,6.80
2017,01,20,16,30,6.80
2017,01,20,16,31,6.80
2017,01,20,16,32,6.80
2017,01,20,16,33,6.80
2017,01,20,16,34,6.80
2017,01,20,16,35,6.80
2017,01,20,16,36,6.80
2017,01,20,16,37,6.80
2017,01,20,16,38,6.80
2017,01,20,16,39,6.80
2017,01,20,16,40,6.80
2017,01,20,16,41,6.80
2017,01,20,16,42,6.80
2017,01,20,16,43,6.80
2017,01,20,16,44,6.80
2017,01,20,16,45,6.70
2017,01,20,16,46,6.70
2017,01,20,16,47,6.70
2017,01,20,16,48,6.70
2017,01,20,16,49,6.70
2017,01,20,16,50,6.70
2017,01,20,16,51,6.70
2017,01,20,16,52,6.70
2017,01,20,16,53,6.70
2017,01,20,16,54,6.70
2017,01,20,16,55,6.70
2017,01,20,16,56,6.70
2017,01,20,16,57,6.70
2017,01,20,16,58,6.70
2017,01,20,16,59,6.70
2017,01,20,17,00,6.70
2017,01,20,17,01,6.70
2017,01,20,17,02,6.70
2017,01,20,17,03,6.70
2017,01,20,17,04,6.70
2017,01,20,17,05,6.70
2017,01,20,17,06,6.70
2017,01,20,17,07,6.70
2017,01,20,17,08,6.70
2017,01,20,17,09,6.70
2017,01,20,17,10,6.70
2017,01,20,17,11,6.70
2017,01,20,17,12,6.70
2017,01,20,17,13,6.70
2017,01,20,17,14,6.70
2017,01,20,17,15,6.70
2017,01,20,17,16,6.70
2017,01,20,17,17,6.60
2017,01,20,17,18,6.60
2017,01,20,17,19,6.70
2017,01,20,17,20,6.70
2017,01,20,17,21,6.70
2017,01,20,17,22,6.70
2017,01,20,17,23,6.70
2017,01,20,17,24,6.70
2017,01,20,17,25,6.70
2017,01,20,17,26,6.70
2017,01,20,17,27,6.70
2017,01,20,17,28,6.70
2017,01,20,17,29,6.70
2017,01,20,17,30,6.70
2017,01,20,17,31,6.70
2017,01,20,17,32,6.70
2017,01,20,17,33,6.70
2017,01,20,17,34,6.70
2017,01,20,17,35,6.70
2017,01,20,17,36,6.70
2017,01,20,17,37,6.70
2017,01,20,17,38,6.70
2017,01,20,17,39,6.70
2017,01,20,17,40,6.70
2017,01,20,17,41,6.70
2017,01,20,17,42,6.70
2017,01,20,17,43,6.70
2017,01,20,17,44,6.70
2017,01,20,17,45,6.70
2017,01,20,17,46,6.70
2017,01,20,17,47,6.70
2017,01,20,17,48,6.70
2017,01,20,17,49,6.70
2017,01,20,17,50,6.70
2017,01,20,17,51,6.70
2017,01,20,17,52,6.70
2017,01,20,17,53,6.70
2017,01,20,17,54,6.70
2017,01,20,17,55,6.70
2017,01,20,17,56,6.70
2017,01,20,17,57,6.70
2017,01,20,17,58,6.70
2017,01,20,17,59,6.70
2017,01,20,18,00,6.70
2017,01,20,18,01,6.70
2017,01,20,18,02,6.70
2017,01,20,18,03,6.70
2017,01,20,18,04,6.70
2017,01,20,18,05,6.70
2017,01,20,18,06,6.70
2017,01,20,18,07,6.70
2017,01,20,18,08,6.70
2017,01,20,18,09,6.70
2017,01,20,18,10,6.70
2017,01,20,18,11,6.70
2017,01,20,18,12,6.70
2017,01,20,18,13,6.60
2017,01,20,18,14,6.60
2017,01,20,18,15,6.60
2017,01,20,18,16,6.60
2017,01,20,18,17,6.60
2017,01,20,18,18,6.60
2017,01,20,18,19,6.60
2017,01,20,18,20,6.60
2017,01,20,18,21,6.60
2017,01,20,18,22,6.60
2017,01,20,18,23,6.60
2017,01,20,18,24,6.60
2017,01,20,18,25,6.60
2017,01,20,18,26,6.60
2017,01,20,18,27,6.60
2017,01,20,18,28,6.60
2017,01,20,18,29,6.60
2017,01,20,18,30,6.60
2017,01,20,18,31,6.60
2017,01,20,18,32,6.60
2017,01,20,18,33,6.50
2017,01,20,18,34,6.60
2017,01,20,18,35,6.60
2017,01,20,18,36,6.60
2017,01,20,18,37,6.60
2017,01,20,18,38,6.60
2017,01,20,18,39,6.60
2017,01,20,18,40,6.60
2017,01,20,18,41,6.60
2017,01,20,18,42,6.60
2017,01,20,18,43,6.60
2017,01,20,18,44,6.60
2017,01,20,18,45,6.60
2017,01,20,18,46,6.60
2017,01,20,18,47,6.60
2017,01,20,18,48,6.60
2017,01,20,18,49,6.60
2017,01,20,18,50,6.60
2017,01,20,18,51,6.60
2017,01,20,18,52,6.60
2017,01,20,18,53,6.60
2017,01,20,18,54,6.60
2017,01,20,18,55,6.60
2017,01,20,18,56,6.60
2017,01,20,18,57,6.60
2017,01,20,18,58,6.60
2017,01,20,18,59,6.60
2017,01,20,19,00,6.60
2017,01,20,19,01,6.60
2017,01,20,19,02,6.60
2017,01,20,19,03,6.60
2017,01,20,19,04,6.60
2017,01,20,19,05,6.60
2017,01,20,19,06,6.60
2017,01,20,19,07,6.60
2017,01,20,19,08,6.60
2017,01,20,19,09,6.60
2017,01,20,19,10,6.60
2017,01,20,19,11,6.60
2017,01,20,19,12,6.60
2017,01,20,19,13,6.60
2017,01,20,19,14,6.60
2017,01,20,19,15,6.60
2017,01,20,19,16,6.70
2017,01,20,19,17,6.70
2017,01,20,19,18,6.70
2017,01,20,19,19,6.70
2017,01,20,19,20,6.70
2017,01,20,19,21,6.70
2017,01,20,19,22,6.70
2017,01,20,19,23,6.70
2017,01,20,19,24,6.70
2017,01,20,19,25,6.70
2017,01,20,19,26,6.70
2017,01,20,19,27,6.70
2017,01,20,19,28,6.70
2017,01,20,19,29,6.70
2017,01,20,19,30,6.70
2017,01,20,19,31,6.70
2017,01,20,19,32,6.70
2017,01,20,19,33,6.70
2017,01,20,19,34,6.70
2017,01,20,19,35,6.70
2017,01,20,19,36,6.70
2017,01,20,19,37,6.70
2017,01,20,19,38,6.70
2017,01,20,19,39,6.70
2017,01,20,19,40,6.70
2017,01,20,19,41,6.70
2017,01,20,19,42,6.70
2017,01,20,19,43,6.70
2017,01,20,19,44,6.70
2017,01,20,19,45,6.70
2017,01,20,19,46,6.70
2017,01,20,19,47,6.70
2017,01,20,19,48,6.70
2017,01,20,19,49,6.70
2017,01,20,19,50,6.70
2017,01,20,19,51,6.70
2017,01,20,19,52,6.80
2017,01,20,19,53,6.80
2017,01,20,19,54,6.80
2017,01,20,19,55,6.80
2017,01,20,19,56,6.80
2017,01,20,19,57,6.90
2017,01,20,19,58,6.90
2017,01,20,19,59,6.90
2017,01,20,20,00,6.90
2017,01,20,20,01,6.90
2017,01,20,20,02,6.90
2017,01,20,20,03,6.90
2017,01,20,20,04,6.90
2017,01,20,20,05,6.90
2017,01,20,20,06,6.90
2017,01,20,20,07,6.90
2017,01,20,20,08,6.90
2017,01,20,20,09,6.90
2017,01,20,20,10,6.90
2017,01,20,20,11,6.80
2017,01,20,20,12,6.80
2017,01,20,20,13,6.80
2017,01,20,20,14,6.80
2017,01,20,20,15,6.80
2017,01,20,20,16,6.80
2017,01,20,20,17,6.80
2017,01,20,20,18,6.80
2017,01,20,20,19,6.80
2017,01,20,20,20,6.80
2017,01,20,20,21,6.80
2017,01,20,20,22,6.80
2017,01,20,20,23,6.80
2017,01,20,20,24,6.80
2017,01,20,20,25,6.80
2017,01,20,20,26,6.80
2017,01,20,20,27,6.80
2017,01,20,20,28,6.80
2017,01,20,20,29,6.80
2017,01,20,20,30,6.80
2017,01,20,20,31,6.80
2017,01,20,20,32,6.80
2017,01,20,20,33,6.80
2017,01,20,20,34,6.80
2017,01,20,20,35,6.80
2017,01,20,20,36,6.80
2017,01,20,20,37,6.80
2017,01,20,20,38,6.80
2017,01,20,20,39,6.80
2017,01,20,20,40,6.80
2017,01,20,20,41,6.80
2017,01,20,20,42,6.80
2017,01,20,20,43,6.80
2017,01,20,20,44,6.80
2017,01,20,20,45,6.80
2017,01,20,20,46,6.80
2017,01,20,20,47,6.80
2017,01,20,20,48,6.80
2017,01,20,20,49,6.80
2017,01,20,20,50,6.80
2017,01,20,20,51,6.80
2017,01,20,20,52,6.80
2017,01,20,20,53,6.90
2017,01,20,20,54,6.90
2017,01,20,20,55,6.90